SCP
0 0 0 0 0 0 0 0 0 0 0 0 0 0 0 0 0 0 0 -0 0 0
0 0 0 0 0 0 0 0 0 0 0 0 0 0 0 0 0 0 0 0 0 0
0 0 0 0 0 0 0 0 0 0 0 0 0 0 0 0 0 0 0 0 0 0
0 0 0 0 0 0 0 0 0 0 0 0 0 0 0 0 0 0 0 0 0 0
0 0 0 0 0 0 0 0 0 0 0 0 0 0 0 0 0 0 0 0 0 0
0 0 0 0 0 0 0 0 0 0 0 0 0 0 0 0 0 0 0 0 0 0
0 0 0 0 0 0 0 0 0 0 0 0 0 0 0 0 0 0 0 0 0 0
0 0 0 0 0 0 0 0 0 0 0 0 0 0 0 0 0 0 0 0 0 0
0 0 0 0 0 0 0 0 0 0 0 0 0 0 0 0 0 0 0 0 0 0
0 0 0 0 0 0 0 0 0 0 0 0 0 0 0 0 0 0 0 0 0 0
0 0 0 0 0 0 0 0 0 0 0 0 0 0 0 0 0 0 0 0 0 0
0 0 0 0 0 0 0 0 0 0 0 0 0 0 0 0 0 0 0 0 0 0
0 0 0 0 0 0 0 0 0 0 0 0 0 0 0 0 0 0 0 0 0 0
0 0 0 0 0 0 0 0 0 0 0 0 0 0 0 0 0 0 0 0 0 0
Wind_Speed_500mb
21 21 25 30 34 37 38 36 39 43 46 45 41 42 39 40 43 39 41 39 35 32
20 20 22 26 30 33 36 35 35 38 41 45 47 43 39 38 42 41 38 37 37 35
19 21 22 26 28 32 34 36 34 32 37 40 41 49 44 43 44 41 34 32 41 33
19 21 24 26 29 30 32 35 36 34 34 41 40 43 48 45 42 41 35 26 35 38
18 21 24 26 28 30 32 33 35 35 33 32 39 39 48 50 44 40 38 29 28 31
19 22 24 26 28 29 30 30 31 35 34 32 33 42 37 49 45 39 35 29 32 31
17 20 22 24 27 28 28 29 30 31 34 31 24 37 38 46 44 35 31 26 30 28
17 19 20 23 25 26 26 28 30 31 31 30 21 22 38 42 39 34 31 23 24 27
14 17 18 19 21 24 25 27 29 31 33 33 28 21 28 37 40 34 32 28 24 22
13 14 16 16 18 20 23 25 29 31 32 33 32 29 23 33 40 35 32 30 27 23
16 15 15 15 16 18 21 23 26 29 31 33 34 32 30 28 35 33 30 28 28 26
19 18 18 18 19 20 22 24 27 30 31 32 32 34 33 29 33 31 30 28 26 26
24 22 22 23 23 24 25 27 29 31 34 35 33 33 32 32 33 33 32 30 27 24
26 24 24 25 25 26 28 29 30 32 33 35 36 32 32 30 32 34 34 33 31 28
Wind_Direction_500mb
348 351 354 357 359 1 3 5 10 11 9 6 5 4 0 359 360 0 357 359 2 347
345 346 350 356 354 356 359 360 8 8 10 15 14 5 1 1 1 357 352 3 0 349
342 345 346 350 353 356 353 356 357 359 1 0 7 10 7 4 3 5 4 1 6 3
339 341 343 345 348 349 349 350 351 353 353 359 2 0 8 5 2 3 5 8 11 12
336 341 339 340 345 347 346 343 344 345 349 353 4 357 1 5 2 359 3 7 6 11
334 338 337 340 346 346 345 345 345 347 345 348 360 1 355 358 359 1 4 11 11 17
326 334 338 345 347 347 345 349 352 349 350 346 342 2 360 355 355 359 0 7 10 13
319 329 336 346 349 348 350 354 354 357 358 354 351 357 355 349 357 359 5 5 7 11
306 320 331 342 349 351 354 358 358 0 2 4 3 1 1 347 356 356 356 359 7 3
287 306 321 332 345 351 352 358 1 2 4 4 5 2 16 343 355 354 353 353 356 5
275 291 306 317 332 341 349 351 356 2 3 3 1 0 360 352 355 357 355 350 352 356
270 285 294 306 315 326 336 343 347 352 357 1 358 358 357 359 357 359 360 359 354 353
266 279 289 294 303 314 323 331 338 345 346 350 353 352 357 0 353 357 1 4 0 357
265 276 283 289 300 307 316 324 330 336 339 342 343 347 348 355 351 353 358 357 3 5
Wind_Speed_850mb
21 21 25 30 34 37 38 36 39 43 46 45 41 42 39 40 43 39 41 39 35 32
20 20 22 26 30 33 36 35 35 38 41 45 47 43 39 38 42 41 38 37 37 35
19 21 22 26 28 32 34 36 34 32 37 40 41 49 44 43 44 41 34 32 41 33
19 21 24 26 29 30 32 35 36 34 34 41 40 43 48 45 42 41 35 26 35 38
18 21 24 26 28 30 32 33 35 35 33 32 39 39 48 50 44 40 38 29 28 31
19 22 24 26 28 29 30 30 31 35 34 32 33 42 37 49 45 39 35 29 32 31
17 20 22 24 27 28 28 29 30 31 34 31 24 37 38 46 44 35 31 26 30 28
17 19 20 23 25 26 26 28 30 31 31 30 21 22 38 42 39 34 31 23 24 27
14 17 18 19 21 24 25 27 29 31 33 33 28 21 28 37 40 34 32 28 24 22
13 14 16 16 18 20 23 25 29 31 32 33 32 29 23 33 40 35 32 30 27 23
16 15 15 15 16 18 21 23 26 29 31 33 34 32 30 28 35 33 30 28 28 26
19 18 18 18 19 20 22 24 27 30 31 32 32 34 33 29 33 31 30 28 26 26
24 22 22 23 23 24 25 27 29 31 34 35 33 33 32 32 33 33 32 30 27 24
26 24 24 25 25 26 28 29 30 32 33 35 36 32 32 30 32 34 34 33 31 28
Wind_Direction_850mb
348 351 354 357 359 1 3 5 10 11 9 6 5 4 0 359 360 0 357 359 2 347
345 346 350 356 354 356 359 360 8 8 10 15 14 5 1 1 1 357 352 3 0 349
342 345 346 350 353 356 353 356 357 359 1 0 7 10 7 4 3 5 4 1 6 3
339 341 343 345 348 349 349 350 351 353 353 359 2 0 8 5 2 3 5 8 11 12
336 341 339 340 345 347 346 343 344 345 349 353 4 357 1 5 2 359 3 7 6 11
334 338 337 340 346 346 345 345 345 347 345 348 360 1 355 358 359 1 4 11 11 17
326 334 338 345 347 347 345 349 352 349 350 346 342 2 360 355 355 359 0 7 10 13
319 329 336 346 349 348 350 354 354 357 358 354 351 357 355 349 357 359 5 5 7 11
306 320 331 342 349 351 354 358 358 0 2 4 3 1 1 347 356 356 356 359 7 3
287 306 321 332 345 351 352 358 1 2 4 4 5 2 16 343 355 354 353 353 356 5
275 291 306 317 332 341 349 351 356 2 3 3 1 0 360 352 355 357 355 350 352 356
270 285 294 306 315 326 336 343 347 352 357 1 358 358 357 359 357 359 360 359 354 353
266 279 289 294 303 314 323 331 338 345 346 350 353 352 357 0 353 357 1 4 0 357
265 276 283 289 300 307 316 324 330 336 339 342 343 347 348 355 351 353 358 357 3 5